User: anonymous   Login
Location: Unspecified
(0.0000°N, 0.0000°E)
Time: 08:43:49
(UTC+02:00)
Language:

SWIFT - Orbit

View from above orbital plane
View from above orbital plane
View from above satellite
View from above satellite

Ground track
Ground track

The orbit data is extracted from the following two-line orbital elements,

1 28485U 04047A   16181.87993818  .00000983  00000-0  38675-4 0  9995
2 28485  20.5571  76.7256 0011690 109.7424 250.4271 15.03188996635113
Epoch (UTC): 29 June 2016 21:07:06
Eccentricity: 0.0011690
inclination: 20.5571°
perigee height: 549 km
apogee height: 565 km
right ascension of ascending node: 76.7256°
argument of perigee: 109.7424°
revolutions per day: 15.03188996
mean anomaly at epoch: 250.4271°
orbit number at epoch: 63511

The dashed part of the orbit path shows where the satellite is in the earth's shadow,  

DLR